Location: Lake Arresoe
(56.0000°N, 12.5000°E)
Time: 16:14:28
(UTC+02:00)

Resurs 1-4 Rocket - Visible Passes

Search period start: 22 October 2021 00:00
Search period end: 31 October 2021 23:00
Orbit: 800 x 814 km, 98.6° (Epoch: 21 October)

Date Brightness Start Highest point End Pass type
(mag) Time Alt. Az. Time Alt. Az. Time Alt. Az.
22 Oct 4.6 02:13:51 10° NNE 02:15:08 17° NE 02:15:08 17° NE visible
22 Oct 3.7 03:53:41 10° N 03:56:11 27° N 03:56:11 27° N visible
22 Oct 4.0 05:34:55 10° NNW 05:37:16 14° NW 05:37:16 14° NW visible
23 Oct 4.9 01:49:30 10° NE 01:50:05 12° NE 01:50:05 12° NE visible
23 Oct 3.9 03:28:56 10° NNE 03:31:09 26° N 03:31:09 26° N visible
23 Oct 3.9 05:09:42 10° N 05:12:14 17° NNW 05:12:14 17° NNW visible
24 Oct 4.2 03:04:15 10° NNE 03:06:07 23° NNE 03:06:07 23° NNE visible
24 Oct 3.8 04:44:42 10° N 04:47:10 21° NNW 04:47:10 21° NNW visible
25 Oct 4.5 02:39:38 10° NNE 02:41:05 19° NNE 02:41:05 19° NNE visible
25 Oct 3.8 04:19:48 10° N 04:22:09 23° NNW 04:22:09 23° NNW visible
25 Oct 4.2 06:02:25 10° NNW 06:02:56 10° NW 06:03:13 10° NW visible
26 Oct 4.8 02:15:08 10° NNE 02:16:03 15° NNE 02:16:03 15° NNE visible
26 Oct 3.9 03:54:58 10° N 03:57:07 23° N 03:57:07 23° N visible
26 Oct 4.1 05:36:15 10° NNW 05:38:10 13° NW 05:38:10 13° NW visible
27 Oct 5.0 01:50:47 10° NE 01:51:00 11° NE 01:51:00 11° NE visible
27 Oct 4.1 03:30:14 10° NNE 03:32:04 22° N 03:32:04 22° N visible
27 Oct 4.0 05:11:02 10° N 05:13:08 16° NNW 05:13:08 16° NNW visible
28 Oct 4.4 03:05:32 10° NNE 03:07:02 19° NNE 03:07:02 19° NNE visible
28 Oct 3.9 04:46:01 10° N 04:48:06 19° NNW 04:48:06 19° NNW visible
29 Oct 4.7 02:40:56 10° NNE 02:42:00 16° NNE 02:42:00 16° NNE visible
29 Oct 4.0 04:21:07 10° N 04:23:04 20° N 04:23:04 20° N visible
30 Oct 4.9 02:16:25 10° NNE 02:16:57 13° NNE 02:16:57 13° NNE visible
30 Oct 4.1 03:56:17 10° N 03:58:02 20° N 03:58:02 20° N visible
30 Oct 4.2 05:37:35 10° NNW 05:39:06 13° NNW 05:39:06 13° NNW visible
31 Oct 4.3 02:31:31 10° NNE 02:32:59 19° N 02:32:59 19° N visible
31 Oct 4.1 04:12:20 10° N 04:14:04 15° NNW 04:14:04 15° NNW visible
